TimeAKST,TemperatureF,Dew PointF,Humidity,Sea Level PressureIn,VisibilityMPH,Wind Direction,Wind SpeedMPH,Gust SpeedMPH,PrecipitationIn,Events,Conditions,WindDirDegrees,DateUTC
12:53 AM,8.1,3.0,80,29.75,10.0,NNE,12.7,-,N/A,,Overcast,30,2013-02-05 09:53:00
1:53 AM,8.1,3.0,80,29.75,7.0,NE,13.8,-,0.00,Snow,Light Snow,40,2013-02-05 10:53:00
3:53 AM,8.1,3.0,80,29.76,3.0,NNE,10.4,-,0.00,Snow,Light Snow,20,2013-02-05 12:53:00
4:19 AM,8.6,3.2,79,29.76,2.0,NNE,10.4,-,0.00,Snow,Light Snow,30,2013-02-05 13:19:00
4:53 AM,8.1,3.0,80,29.76,2.5,NNE,8.1,-,0.00,Snow,Light Snow,30,2013-02-05 13:53:00
5:02 AM,8.6,3.2,79,29.76,3.0,NNE,9.2,-,0.00,Snow,Light Snow,30,2013-02-05 14:02:00
5:39 AM,8.6,3.2,79,29.76,5.0,NNE,8.1,-,0.00,Snow,Light Snow,30,2013-02-05 14:39:00
5:53 AM,8.1,3.0,80,29.76,5.0,NNE,9.2,-,0.00,Snow,Light Snow,30,2013-02-05 14:53:00
6:09 AM,8.6,3.2,79,29.76,3.0,NNE,10.4,-,0.00,Snow,Light Snow,30,2013-02-05 15:09:00
6:53 AM,7.0,3.0,84,29.77,3.0,NE,6.9,-,0.00,Snow,Light Snow,40,2013-02-05 15:53:00
7:06 AM,6.8,1.4,79,29.77,2.5,NE,6.9,-,0.00,Snow,Light Snow,50,2013-02-05 16:06:00
7:40 AM,6.8,3.2,85,29.76,3.0,NNE,5.8,-,0.00,Snow,Light Snow,30,2013-02-05 16:40:00
7:51 AM,6.8,3.2,85,29.76,2.5,NNE,5.8,-,0.00,Snow,Light Snow,30,2013-02-05 16:51:00
7:53 AM,7.0,3.0,84,29.77,2.5,NNE,5.8,-,0.00,Snow,Light Snow,20,2013-02-05 16:53:00
8:53 AM,7.0,1.9,80,29.77,2.5,NNE,8.1,-,0.00,Snow,Light Snow,30,2013-02-05 17:53:00
9:20 AM,6.8,1.4,79,29.76,3.0,NNE,4.6,-,0.00,Snow,Light Snow,30,2013-02-05 18:20:00
9:28 AM,6.8,3.2,85,29.77,3.0,Calm,Calm,-,0.00,Snow,Light Snow,0,2013-02-05 18:28:00
9:53 AM,7.0,3.0,84,29.77,4.0,NNE,3.5,-,0.00,Snow,Light Snow,20,2013-02-05 18:53:00
10:00 AM,6.8,3.2,85,29.77,4.0,Calm,Calm,-,0.00,Snow,Light Snow,0,2013-02-05 19:00:00
10:33 AM,6.8,3.2,85,29.77,2.0,Calm,Calm,-,0.00,Snow,Light Snow,0,2013-02-05 19:33:00
10:53 AM,6.1,1.9,83,29.78,3.0,Calm,Calm,-,0.00,Snow,Light Snow,0,2013-02-05 19:53:00
11:53 AM,5.0,1.0,84,29.78,3.0,Calm,Calm,-,0.00,Snow,Light Snow,0,2013-02-05 20:53:00
12:53 PM,6.1,1.9,83,29.79,5.0,NW,4.6,-,0.00,Snow,Light Snow,320,2013-02-05 21:53:00
1:40 PM,6.8,1.4,79,29.79,2.5,NW,4.6,-,0.00,Snow,Light Snow,320,2013-02-05 22:40:00
1:53 PM,6.1,1.0,80,29.79,2.5,NW,5.8,-,0.00,Snow,Light Snow,320,2013-02-05 22:53:00
2:07 PM,5.0,1.4,85,29.79,3.0,NW,6.9,-,0.00,Snow,Light Snow,320,2013-02-05 23:07:00
2:34 PM,5.0,1.4,85,29.79,2.5,NW,6.9,-,0.00,Snow,Light Snow,310,2013-02-05 23:34:00
2:53 PM,5.0,-0.0,80,29.79,2.0,NW,8.1,-,0.00,Snow,Light Snow,310,2013-02-05 23:53:00
3:08 PM,3.2,-0.4,85,29.79,3.0,NW,8.1,-,0.00,Snow,Light Snow,310,2013-02-06 00:08:00
3:53 PM,1.0,-4.0,79,29.79,7.0,West,8.1,-,0.00,,Overcast,280,2013-02-06 00:53:00
4:53 PM,-0.0,-5.1,79,29.79,10.0,West,5.8,-,0.00,,Overcast,270,2013-02-06 01:53:00
5:53 PM,-0.0,-5.1,79,29.80,10.0,West,6.9,-,N/A,,Mostly Cloudy,270,2013-02-06 02:53:00
6:53 PM,1.0,-4.0,79,29.80,10.0,West,4.6,-,N/A,,Mostly Cloudy,280,2013-02-06 03:53:00
7:53 PM,-0.9,-7.1,75,29.80,10.0,West,17.3,-,N/A,,Overcast,280,2013-02-06 04:53:00
8:53 PM,-4.0,-9.0,79,29.80,10.0,WSW,15.0,-,N/A,,Overcast,250,2013-02-06 05:53:00
9:53 PM,-5.1,-9.9,80,29.80,10.0,West,13.8,-,N/A,,Partly Cloudy,260,2013-02-06 06:53:00
10:53 PM,-4.0,-9.0,79,29.81,10.0,West,15.0,-,N/A,,Overcast,260,2013-02-06 07:53:00
11:53 PM,-2.0,-7.1,79,29.81,10.0,West,11.5,-,N/A,,Overcast,260,2013-02-06 08:53:00